sat.trackr.live / text

‹ back to catalog

STARLINK-4092

NORAD 52838 · 2022-062J

PAYLOAD ACTIVE UNKNOWN

§ Identity

Operator
Country
US
Launch date
2022-06-17
Launch site
AFETR
Launch vehicle
Mass (kg)
RCS (m²)

Purposes: comms

External: N2YO · Heavens-Above · Gunter

§ Orbital elements

Epoch: 2026-09-20T05:01:51.015936Z

Period
94.01 min
Inclination
53.1605°
Eccentricity
0.0001378
Mean motion
15.31701940 rev/d
Perigee alt
469.8 km
Apogee alt
471.7 km
Semi-major
6,848.9 km
B*
2.0918e-5
RAAN
230.1837°
Arg perigee
87.0650°
Mean anomaly
273.0509°
Rev number
23,529

§ Raw data

STARLINK-40921 52838U 22062J   26263.20961824  .00000284  00000+0  20918-4 0  99962 52838  53.1605 230.1837 0001378  87.0650 273.0509 15.31701940235295

JSON: /api/v1/satellites/52838 · /tle

For live sub-satellite position, see the globe view (requires WebGL).

§ Visibility from observer

Set your observer location to see the next 7 days of passes ≥ 10°. The values pass through the URL so the page stays shareable.

No JS? Fill the form by hand. The geolocation button needs JavaScript.